Showing default

TIANQI 30, 61196

Orbit data source: Space-Track

TIANQI 30, 61196 is a payload satellite owned by Guodian Gaokeji (CN) in LEO that was launched on Fri, 20 Sep 2024 UTC via a KUAIZHOU-1A launch vehicle from the Xichang Space Center, China (XSC). Payload-class satellites include a variety of spacecraft equipped with specific instruments for various scientific and technological missions. These include communications satellites like Starlink; space stations such as the ISS; scientific satellites like the Hubble; Earth observation satellites from companies like Planet Labs, Umbra, and HawkEye 360; GPS; miniature CubeSats for education and research; and military/defense satellites.

Loading next visibility...
Identifier
61196, 2024-170B
Orbit
LEO
Country
Flag of CNCN / PRC
Related business
Manufacturer
Shanghai ASES
Mission
Operational Commercial Communications
Bus & Motor
STARLIGHTB, Unknown motor
Mass
40 kg wet, ~40 kg dry
Launch date (UTC)
2024-09-20 (1 year ago)
Launch vehicle
KUAIZHOU-1A
Launch site
Xichang Space Center, China (XSC)
Object type
Payload
Rocket body
Debris
Shape & HBR
Box, 0.3 m
Radar Cross Section
0.195 m², Medium (>0.1 m² and < 1m²)

Expand to show TLE details & history
Last TLE update: 8 hours ago

TLE from 8 hours ago
0 TIANQI 30
1 61196U 24170B   25304.27735020  .00000110  00000-0  16372-3 0  9991
2 61196  44.8581  77.5746 0008208 101.0283 259.1472 13.99030200 56990
Epoch: 2025-10-31T06:39Z
TLE epoch observation values (Epoch: 2025-10-31T06:39:23.057Z)
Latitude
0.00004°
Longitude
-62.09552°
Altitude
898.268 km
Speed
7.404 km/s
True Right ascension
05h 10m 17s
True Declination
0° 00' 00"
Sunlit
Object was in full shadow at epoch
Visualization orbit readout
Latitude
Unknown
Longitude
Unknown
Altitude
Unknown
Speed
Unknown
Apparent Right ascension
Unknown
Apparent Declination
Unknown
Sunlit
N/A
Visualization observer readout
Local Sidereal Time
09:58:22
Azimuth
Unknown
Elevation
Unknown
Doppler factor
Unknown
Orbital elements
Apogee altitude
904.669 km
Perigee altitude
892.723 km
Semi-major axis
7,276.833 km
Eccentricity
0.00082
Inclination
44.8581°
RAAN
77.5746°
Arg. of periapsis
101.0283°
True anomaly
259.05484°
Mean anomaly
259.1472°
Eccentric anomaly
259.10102°
Mean motion
3.49647 °/min
Orbital period
102.96 mins
BSTAR
0.00016372
Loading maneuver chart data...
Computing Atmospheric mass density...
Loading historical data...
Loading historical data...
Loading historical data...
Loading historical data...
Loading historical data...
Loading historical data...
Loading historical data...
Other satellites on launch #170 in the year 2024 (2024-09-20 UTC)

Documentation

Showing up to 5 results
|